Weather Roundup
Issued by NWS

Home | Current Version | Previous Version | Graphics & Text | Print | Product List | Glossary Off
Versions: 1 2 3 4 5 6 7 8 9 10 11 12 13 14 15 16 17 18 19 20 21 22 23 24 25 26 27 28 29 30 31 32 33 34 35 36 37 38 39 40 41 42 43 44 45 46 47 48 49 50

000
NZUS93 KARX 231110
HRRWXR

CURRENT HOURLY OBSERVATIONS ACROSS
MUCH OF THE UPPER MISSISSIPPI VALLEY
NATIONAL WEATHER SERVICE LA CROSSE WI
500 AM CST MON JAN 23 2017


...SOUTHEAST MINNESOTA...


CITY           SKY/WX    TMP DP  RH WIND       PRES   REMARKS
ROCHESTER      CLOUDY    31  31 100 W12       29.79F FOG     WCI  22
ROCHESTER/MAYO CLOUDY    33  33 100 W6        29.80F WCI  27
WINONA         CLOUDY    34  32  93 NW5       29.81F WCI  30
AUSTIN         CLOUDY    32  30  93 W6        29.81F FOG     WCI  26
ALBERT LEA     CLOUDY    32  32 100 W5        29.82R FOG     WCI  27
DODGE CENTER   MIX PCPN  30  30 100 CALM      29.79F
PRESTON        CLOUDY    31  30  94 NW12      29.79F FOG     WCI  22
OWATONNA       CLOUDY    32  30  93 W5        29.81F FOG     WCI  27
FARIBAULT      NOT AVBL
$$

...ELSEWHERE IN MINNESOTA...


CITY           SKY/WX    TMP DP  RH WIND       PRES   REMARKS
MINNEAPOLIS    DRIZZLE   34  32  92 W3        29.81S FOG
INTNL FALLS    FOG       33  32  96 CALM      29.74S VSB 1/4
DULUTH         FOG       35  34  96 NW6       29.74S VSB 1   WCI  30
RED WING       CLOUDY    34  32  93 W3        29.80F FOG
REDWOOD FALLS  CLOUDY    33  28  81 NW6       29.83S WCI  28
MANKATO        CLOUDY    32  30  92 W6        29.83S WCI  26
WORTHINGTON    CLOUDY    32  29  88 NW10      29.83F WCI  24
FAIRMONT       CLOUDY    33  28  81 NW9       29.84F WCI  25
$$

...SOUTHWEST WISCONSIN...


CITY           SKY/WX    TMP DP  RH WIND       PRES   REMARKS
LA CROSSE      CLOUDY    38  34  85 W7        29.79S WCI  33
PRAIRIE DU CHI CLOUDY    35  34  94 NW3       29.79S
BOSCOBEL       CLOUDY    38  35  89 CALM      29.78F FOG
LONE ROCK      CLOUDY    36  34  92 W6        29.77S WCI  31
PLATTEVILLE    CLOUDY    36  36 100 NW8       29.76F WCI  29
FORT MC COY    FOG       33  33 100 W5        29.78S VSB 1   WCI  29
CAMP DOUGLAS   FOG       36  34  93 W5        29.75F VSB 3/4 WCI  32
MAUSTON-NEW LI CLOUDY    35  35  99 NW6       29.75S FOG     WCI  30
VIROQUA        CLOUDY    34  34 100 NW8       29.76S VSB 1/4 WCI  27
WIS DELLS      CLOUDY    35  34  99 NW5       29.75S FOG     WCI  30
$$

...ELSEWHERE IN WISCONSIN...


CITY           SKY/WX    TMP DP  RH WIND       PRES   REMARKS
MILWAUKEE      CLOUDY    39  36  89 NW6       29.72R WCI  35
MADISON        CLOUDY    35  34  96 NW6       29.76R WCI  30
GREEN BAY      CLOUDY    37  37 100 NW5       29.73S WCI  33
EAU CLAIRE     FOG       34  34 100 W7        29.77F VSB 1/2 WCI  28
BLACK RVR FLS  FOG       35  35 100 W5        29.77S VSB 1/2 WCI  31
MEDFORD        FOG       32  32 100 NW3       29.73S VSB 1/2
WAUSAU         CLOUDY    34  33  96 NW5       29.73R WCI  30
WIS RAPIDS     CLOUDY    34  34 100 NW5       29.76S WCI  30
MARSHFIELD     CLOUDY    33  33 100 N3        29.73S FOG
RICE LAKE      FOG       34  34 100 W3        29.78S VSB 1/4
$$

...NORTHEAST IOWA...


CITY           SKY/WX    TMP DP  RH WIND       PRES   REMARKS
WATERLOO       CLOUDY    33  31  92 NW8       29.82R FOG     WCI  26
DUBUQUE        CLOUDY    35  34  96 NW8       29.77S WCI  29
DECORAH        CLOUDY    34  32  93 NW3       29.78F
MASON CITY     CLOUDY    31  29  92 W14       29.84S WCI  21
CHARLES CITY   CLOUDY    32  32 100 NW9       29.82S FOG     WCI  24
OELWEIN        CLOUDY    32  32 100 NW12      29.80S FOG     WCI  23
$$

...ELSEWHERE IN IOWA...


CITY           SKY/WX    TMP DP  RH WIND       PRES   REMARKS
DES MOINES     CLOUDY    33  30  88 NW10      29.86S WCI  25
IOWA CITY      CLOUDY    37  34  89 NW8       29.82S WCI  31
FORT DODGE     CLOUDY    32  27  80 NW5       29.85F WCI  27
MARSHALLTOWN   CLOUDY    32  32 100 NW13      29.83S FOG     WCI  22
CEDAR RAPIDS   CLOUDY    34  33  96 NW9       29.79F FOG     WCI  27
$$

...NORTHERN ILLINOIS...


CITY           SKY/WX    TMP DP  RH WIND       PRES   REMARKS
CHICAGO-OHARE  CLOUDY    37  35  92 N14       29.72R WCI  28
CHICAGO-MIDWAY CLOUDY    39  34  82 N8        29.72R WCI  33
MOLINE         CLOUDY    37  33  85 NW8       29.78S WCI  31
ROCKFORD       CLOUDY    37  35  92 N9        29.76R FOG     WCI  30
PEORIA         CLOUDY    37  35  92 N8G18     29.76R WCI  31
$$

NOTE: "FAIR" INDICATES FEW OR NO CLOUDS BELOW 12,000 FEET WITH NO
SIGNIFICANT WEATHER AND/OR OBSTRUCTIONS TO VISIBILITY. WIND
SPEEDS ARE IN MILES-PER-HOUR.




USA.gov is the U.S. government's official web portal to all federal, state and local government web resources and services.